Flag for U.S.A. Weather past 2 weeks in San Buenaventura, California, U.S.A.

Now
63 °F

Fog.


Feels Like: 63 °F
Forecast: 64 / 79 °F
Wind: 7 mph from West

Location: Oxnard Airport

Current Time: Aug 1, 2014 at 1:08:52 AM

Latest Report: Jul 31, 2014 at 11:51 PM


Visibility: 6 mi

Pressure: 29.90 "Hg

Humidity: 90%

Dew point: 60 °F

Location of San BuenaventuraLocation

Historic Weather in San Buenaventura — Graph

°F

San Buenaventura temperature yesterday

Maximum temperature yesterday: 72 °F (at 12:51 PM)
Minimum temperature yesterday: 62 °F (at 5:51 AM)
Average temperature yesterday: 66 °F

Past Weeks' High & Low Weather Summary

 TemperatureHumidityPressure
High77 °F (Jul 24, 2:51 PM)100% (Jul 26, 3:00 AM)30.07 "Hg (Jul 26, 3:00 AM)
Low61 °F (Jul 22, 5:51 AM)54% (Jul 21, 1:51 PM)29.75 "Hg (Jul 24, 5:51 PM)
Average68 °F79%29.96 "Hg
* Reported Jul 16 11:51 PM — Jul 31 11:51 PM, San Buenaventura, Weather by CustomWeather, © 2014

Note: Actual official high and low records may vary slightly from our data, if they occured in-between our weather recording intervals... More about our weather records

Advertising

San Buenaventura weather history for previous 24 hours

 ConditionsComfort  
Time TempWeatherWind HumidityBarometerVisibility
11:51 PM
Jul 31
63 °FFog.7 mph90%29.90 "Hg6 mi
10:51 PM64 °FLow clouds.6 mph87%29.90 "Hg7 mi
9:51 PM64 °FLow clouds.8 mph87%29.89 "Hg8 mi
8:58 PM64 °FPassing clouds.9 mph88%29.88 "Hg8 mi
7:51 PM65 °FScattered clouds.13 mph85%29.86 "Hg7 mi
6:51 PM67 °FPassing clouds.16 mph81%29.85 "Hg9 mi
5:51 PM69 °FSunny.15 mph76%29.86 "Hg10 mi
4:51 PM70 °FSunny.16 mph73%29.88 "Hg10 mi
3:51 PM70 °FSunny.16 mph73%29.88 "Hg10 mi
2:51 PM71 °FSunny.16 mph71%29.89 "Hg10 mi
1:51 PM71 °FSunny.17 mph71%29.91 "Hg10 mi
12:51 PM72 °FSunny.14 mph68%29.92 "Hg10 mi
11:51 AM71 °FSunny.10 mph68%29.93 "Hg10 mi
10:51 AM71 °FSunny.9 mph71%29.93 "Hg10 mi
9:51 AM70 °FSunny.3 mph73%29.93 "Hg8 mi
8:51 AM67 °FSunny.No wind81%29.93 "Hg8 mi
7:51 AM65 °FFog.No wind87%29.93 "Hg6 mi
6:51 AM63 °FFog.3 mph93%29.92 "Hg5 mi
6:03 AM63 °FPassing clouds.5 mph94%29.92 "Hg7 mi
5:51 AM62 °FPassing clouds.3 mph93%29.92 "Hg7 mi
4:51 AM63 °FPassing clouds.10 mph90%29.90 "Hg7 mi
3:51 AM63 °FClear.9 mph90%29.90 "Hg7 mi
2:51 AM63 °FFog.3 mph90%29.91 "Hg6 mi
1:51 AM65 °FMild.3 mph87%29.92 "Hg7 mi
Weather by CustomWeather, © 2014

See weather overviewHow to use our weather pages